Home > Weather > Seoul > Past weeks

Flag for South Korea Past Weather in Seoul, South Korea — Yesterday and Last 2 Weeks

Now
79 °F

Passing clouds.


Feels Like: 82 °F
Forecast: 74 / 88 °F
Wind: 6 mph from Northwest

Location: Seoul / Kimp'O International Airport

Current Time: Jul 25, 2016 at 11:16:14 PM

Latest Report: Jul 25, 2016 at 10:00 PM


Visibility: 4 mi

Pressure: 29.83 "Hg

Humidity: 84%

Dew Point: 73 °F

Location of SeoulLocation

Past Weather in Seoul — Graph

°F

Seoul Temperature Yesterday

Maximum temperature yesterday: 86 °F (at 4:00 PM)
Minimum temperature yesterday: 79 °F (at 2:00 AM)
Average temperature yesterday: 82 °F

High & Low Weather Summary for the Past Weeks

 TemperatureHumidityPressure
High91 °F (Jul 11, 1:00 PM)94% (Jul 17, 2:00 AM)29.89 "Hg (Jul 17, 2:00 AM)
Low68 °F (Jul 16, 5:00 AM)38% (Jul 19, 4:00 PM)29.50 "Hg (Jul 16, 5:00 AM)
Average79 °F69%29.73 "Hg
* Reported Jul 10 10:00 PM — Jul 25 10:00 PM, Seoul, Weather by CustomWeather, © 2016

Note: Actual official high and low records may vary slightly from our data, if they occured in-between our weather recording intervals... More about our weather records

Advertising

Seoul Weather History for the Previous 24 Hours

Scroll right to see more
 ConditionsComfort  
Time TempWeatherWind HumidityBarometerVisibility
10:00 PM
Mon, Jul 25
79 °FPassing clouds.6 mph84%29.83 "Hg4 mi
9:00 PM81 °FPassing clouds.5 mph79%29.83 "Hg5 mi
8:00 PM82 °FPassing clouds.6 mph70%29.80 "Hg5 mi
7:00 PM84 °FScattered clouds.3 mph70%29.80 "Hg5 mi
6:00 PM86 °FPartly sunny.6 mph66%29.80 "Hg4 mi
5:00 PM86 °FPartly sunny.8 mph62%29.80 "Hg4 mi
4:00 PM88 °FPartly sunny.8 mph62%29.83 "Hg4 mi
3:00 PM88 °FPartly sunny.8 mph62%29.83 "Hg4 mi
2:00 PM88 °FBroken clouds.8 mph62%29.83 "Hg4 mi
1:00 PM86 °FBroken clouds.6 mph62%29.86 "Hg4 mi
12:00 PM86 °FBroken clouds.7 mph62%29.86 "Hg4 mi
11:00 AM84 °FBroken clouds.6 mph70%29.86 "Hg5 mi
10:00 AM84 °FBroken clouds.5 mph74%29.86 "Hg5 mi
9:00 AM84 °FBroken clouds.6 mph70%29.86 "Hg4 mi
8:00 AM82 °FFog.5 mph79%29.86 "Hg3 mi
7:00 AM81 °FFog.6 mph84%29.86 "Hg3 mi
6:00 AM79 °FFog.5 mph89%29.86 "Hg2 mi
5:00 AM79 °FFog.3 mph84%29.86 "Hg2 mi
4:00 AM79 °FFog.1 mph89%29.86 "Hg2 mi
3:00 AM79 °FFog.1 mph89%29.86 "Hg3 mi
2:00 AM79 °FPartly cloudy.2 mph84%29.86 "Hg4 mi
1:00 AM81 °FPartly cloudy.3 mph84%29.86 "Hg4 mi
12:00 AM81 °FPartly cloudy.2 mph84%29.86 "Hg4 mi
11:00 PM
Sun, Jul 24
81 °FPartly cloudy.3 mph84%29.86 "Hg4 mi
Weather by CustomWeather, © 2016

See weather overviewHow to use our weather pages